INTELSAT 39

Last updated on Aug. 27, 2019, 12:02 a.m. UTC

1 44476U 19049B   19238.11160513 -.00000123  00000-0  00000+0 0  9995
2 44476   0.1099 114.8561 0000390  16.0144 321.2611  1.00272400   248
UTC
Height (km)
Latitude
Longitude
Inclination
Orbital Period
UTC large
Height (km)
Speed (km/s)
/
Latitude / Longitude
Inclination (degrees)
Orbital Period (minutes)
Azimuth
Elevation
Range (km)
Doppler Factor
iOS Compass Heading
iOS Angle

Next 30 passes for location: Hong Kong

Rise time Rise Azimuth (degrees) Set time Set Azimuth (degrees) Duration Max altitude (degrees)

No matching passes for this satellites